Preview of NWS' New Version of Forecast
This preview is not operational and should not be used for support decisions.

Regional Weather Roundup (RWR)

Issued by National Weather Service (NWS)

                            
000
ASUS42 KTBW 200617
RWRFL 
FLORIDA REGIONAL WEATHER ROUNDUP
NATIONAL WEATHER SERVICE TAMPA BAY RUSKIN FL
200 AM EDT SAT JUL 20 2019

NOTE: "FAIR" INDICATES FEW OR NO CLOUDS BELOW 12,000 FEET WITH NO
SIGNIFICANT WEATHER AND/OR OBSTRUCTIONS TO VISIBILITY.

FLZ001>010-012>015-112-114-115-200700-
PANHANDLE FLORIDA
  
CITY           SKY/WX    TMP DP  RH WIND       PRES   REMARKS
PENSACOLA      FAIR      76  73  91 CALM      30.03F                  
PENSACOLA NAS  FAIR      72  72 100 NW3       30.03F                  
MILTON NAS     FAIR      71  71 100 S3          N/A                   
CRESTVIEW      FAIR      72  70  93 CALM      30.06F                  
DUKE FIELD     FAIR      73  73 100 CALM      30.04F                  
VALPARAISO     MOCLDY    74  73  95 N6        30.02F                  
MARY ESTHER    MOCLDY    73  71  94 CALM      30.02F                  
TRI COUNTY     FAIR      75  73  93 CALM      30.06F                  
PANAMA CITY    FAIR      76  72  87 CALM      30.03F                  
TYNDALL AFB    DRIZZLE   76  72  88 CALM      30.03F                  
APALACHICOLA   FAIR      75  72  90 NE5       30.05F                  

STATION/POSITION SKY/WX   TEMP    WIND        PRES    WAVE   SWELL
                          AIR SEA DIR/SP/G            HT/PER HT/PER
                          (F)     (DEG/KT/KT) (MB)    (FT/S) (FT/S)
30.1N   87.6W              84 86  110/  8/ 10 1016.9F   1/ 6   2/ 6
29.2N   88.2W              85     140/  8/  8 1017.1
28.8N   86.0W                 87  120/  6/ 10 1017.2F   1/ 8   2/ 8
PANAMA CITY BEAC           79 87  100/  5/  6 1017.5F
TOWER C                    82     110/  5/  6 1017.8F
28.5N   84.5W              84      30/  2/  2 1018.1F   1/ 4

$$
FLZ011-016>038-118-127-128-134-139-239-200700-
NORTH FLORIDA
  
CITY           SKY/WX    TMP DP  RH WIND       PRES   REMARKS
MARIANNA       FAIR      74  72  93 SE3       30.04F                  
TALLAHASSEE    FAIR      74  73  97 CALM      30.05F                  
PERRY          FAIR      74  73  97 SE3       30.08S                  
LIVE OAK       PTCLDY    72  72 100 CALM      30.08S                  
CROSS CITY     FAIR      73  72  97 E3        30.08F                  
LAKE CITY      FAIR      70  70 100 CALM      30.10R                  
GAINESVILLE    FAIR      72  71  97 CALM      30.11S                  
WILLISTON      FAIR      73  72  99 E3        30.08F                  
PALATKA        FAIR      72  72 100 CALM      30.08F                  
MAYPORT NAS    FAIR      77  72  84 CALM      30.08S                  
JACKSONVILLE   FAIR      72  71  97 CALM      30.07F                  
JAX NAS        FAIR      79  70  74 NE5       30.08F                  
JAX CECIL      FAIR      70  68  94 CALM      30.08S FOG              
FERNANDINA BEA FAIR      73  71  94 E3        30.07F                  
ST AUGUSTINE   FAIR      78  73  84 NE5       30.08F                  
PALM COAST     FAIR      73  72  96 CALM      30.08F                  

STATION/POSITION SKY/WX   TEMP    WIND        PRES    WAVE   SWELL
                          AIR SEA DIR/SP/G            HT/PER HT/PER
                          (F)     (DEG/KT/KT) (MB)    (FT/S) (FT/S)
SHELL POINT      NOT AVBL
KEATON BEACH               74      80/  7/  8 1018.1F
CEDAR KEY                  81      80/  7/  8 1018.7F
FERNANDINA                 79 83              1018.9F
30.7N   81.3W                 83                N/A     1/10
MAYPORT                    77 80  360/  3/  5 1018.9
31.4N   80.9W              80 84  330/  6/  8 1018.1F   2/ 9   2/ 9
ST AUGUSTINE               79 76   30/  7/  7 1018.6F

$$
FLZ040-043>046-052-053-057-058-063-144-200700-
INTERIOR CENTRAL FLORIDA
  
CITY           SKY/WX    TMP DP  RH WIND       PRES   REMARKS
OCALA          FAIR      73  71  93 CALM      30.08F                  
LEESBURG       FAIR      76  74  93 CALM      30.09F                  
SANFORD        FAIR      76  74  93 SE3       30.07F                  
ORLANDO EXEC   FAIR      77  72  84 CALM      30.08F                  
ORLANDO INTL   FAIR      78  72  81 CALM      30.08F                  
KISSIMMEE      FAIR      79  74  84 E3        30.09F                  
WINTER HAVEN   FAIR      78  73  84 CALM      30.09F                  
LAKELAND       MOCLDY    72  72 100 CALM      30.09F                  
BARTOW         FAIR      75  72  88 W3        30.08S                  
SEBRING        FAIR      77  72  84 CALM      30.07F                  
OKEECHOBEE     FAIR      73  72  94 CALM      30.07F                  

$$
FLZ041-047-054-059-064-141-147-200700-
EAST CENTRAL FLORIDA
  
CITY           SKY/WX    TMP DP  RH WIND       PRES   REMARKS
DAYTONA BEACH  FAIR      75  75 100 CALM      30.08F                  
DELAND         FAIR      73  72  94 CALM      30.08S                  
JFK SPACE CTR  CLEAR     76  66  71 CALM      30.07F                  
CAPE CANAVERAL CLEAR     78  51  39 CALM      30.06F                  
PATRICK AFB    FAIR      82  81  96 CALM      30.07F                  
MELBOURNE      FAIR      79  75  87 W3        30.07F                  
VERO BEACH     FAIR      81  77  88 S5        30.07F                  
FT PIERCE      FAIR      76  74  93 CALM      30.06F                  
STUART         FAIR      81  73  78 S5        30.07F                  

STATION/POSITION SKY/WX   TEMP    WIND        PRES    WAVE   SWELL
                          AIR SEA DIR/SP/G            HT/PER HT/PER
                          (F)     (DEG/KT/KT) (MB)    (FT/S) (FT/S)
28.5N   80.2W              83 85  160/ 10/ 10 1018.0F   2/ 9   2/ 9
28.9N   78.5W              85 86  160/  8/ 10   N/A     3/ 9   2/ 9
TRIDENT PIER               81 83  150/  4/  5 1019.9
28.4N   80.5W                 82                N/A     1/ 9
27.5N   80.2W                 83                N/A     1/10

$$
FLZ050-056-061-142-242-148-248-149-249-151-251-155-255-
160-260-200700-
WEST CENTRAL FLORIDA
  
CITY           SKY/WX    TMP DP  RH WIND       PRES   REMARKS
CRYSTAL RIVER  CLOUDY    77  73  88 CALM      30.09S                  
INVERNESS      MOCLDY    73  73 100 CALM      30.09F                  
BROOKSVILLE    FAIR      74  72  93 CALM      30.09F                  
CLEARWATER AIR FAIR      75  72  88 CALM      30.06F                  
ST PETE CLEARW FAIR      79  72  79 E8        30.06F                  
TAMPA INTL     MOCLDY    76  70  82 NE5       30.08F                  
TAMPA EXEC     CLOUDY    73  72  94 CALM      30.09F                  
PLANT CITY     CLOUDY   N/A N/A N/A MISG      30.11F                  
MACDILL AFB    MOCLDY    76  72  89 NE6       30.07F                  
PETER O KNIGHT CLOUDY   N/A N/A N/A NE8       30.08F                  
ST PETERSBURG  MOCLDY    80  74  81 E10       30.06F                  
SARASOTA       FAIR      75  72  90 E3        30.05F                  
VENICE         FAIR      75  72  88 E7        30.06F                  

STATION/POSITION SKY/WX   TEMP    WIND        PRES    WAVE   SWELL
                          AIR SEA DIR/SP/G            HT/PER HT/PER
                          (F)     (DEG/KT/KT) (MB)    (FT/S) (FT/S)
27.3N   84.2W                 86                N/A     2/ 4
CLEARWATER BEACH           79 88   60/  4/  5 1018.3F
MIDDLE TAMPA BAY           80     160/ 10/ 11 1019.0
VENICE                     76 86   80/  5/  7 1017.7F

$$
FLZ066-069-070-075>078-162-262-165-265-200700-
SOUTHWEST FLORIDA AND KEYS
  
CITY           SKY/WX    TMP DP  RH WIND       PRES   REMARKS
PUNTA GORDA    FAIR      75  73  93 CALM      30.08F                  
FT MYERS       FAIR      74  72  93 NE7       30.05F                  
SOUTHWEST INTL FAIR      75  73  93 NE5       30.06F                  
MARCO ISLAND   FAIR      76  74  93 MISG      30.06F                  
IMMOKALEE      MOCLDY    75  73  94 CALM      30.04F                  
MARATHON       FAIR      85  74  69 E8        30.04F                  
KEY WEST NAS   HVY RAIN  81  73  76 E7G30     30.04S                  
KEY WEST INTL  FAIR      84  75  74 E12       30.04F                  

STATION/POSITION SKY/WX   TEMP    WIND        PRES    WAVE   SWELL
                          AIR SEA DIR/SP/G            HT/PER HT/PER
                          (F)     (DEG/KT/KT) (MB)    (FT/S) (FT/S)
NAPLES                     78 87              1017.9F
26.0N   85.6W              84 86   90/ 10/ 12 1017.3F   2/ 6   2/ 6
DRY TORTUGAS               85     140/ 11/ 12 1017.2F
SAND KEY                   85     110/ 12/ 17 1016.1
SOMBRERO KEY               85      90/ 12/ 14 1017.3
LONG KEY                   85                 1016.4

$$
FLZ067-068-071>074-168-172>174-200700-
SOUTHEAST FLORIDA 
  
CITY           SKY/WX    TMP DP  RH WIND       PRES   REMARKS
W PALM BEACH   FAIR      82  73  74 SE6       30.07F                  
FT LAUDER-EXEC FAIR      83  74  74 E8        30.05F                  
FT LAUDERDALE  FAIR      84  74  71 E12       30.05F                  
POMPANO BEACH  FAIR      84  74  71 E8        30.05F                  
PEMBROKE PINES FAIR      85  74  69 E6        30.07F                  
OPA LOCKA      FAIR      83  75  77 E5        30.06F                  
MIAMI          FAIR      84  73  69 E8        30.06F                  
WEST KENDALL     N/A    N/A N/A N/A MISG      30.05F                  
HOMESTEAD      FAIR      82  75  81 E5        30.04F                  

STATION/POSITION SKY/WX   TEMP    WIND        PRES    WAVE   SWELL
                          AIR SEA DIR/SP/G            HT/PER HT/PER
                          (F)     (DEG/KT/KT) (MB)    (FT/S) (FT/S)
VIRGINIA KEY               82 89  110/  8/ 12 1017.6
LAKE WORTH                 84 84  130/ 11/ 12 1019.4
FOWEY ROCKS                83 85  140/  7/  8 1017.9F
SETTLEMENT POINT           83     150/  6/  7 1018.2F

$$